ALSAT 1 1 27559U 02054A 10072.86592004 .00000035 00000-0 14044-4 0 2665 2 27559 97.9048 304.6600 0022673 214.1742 145.8004 14.69372694389325 NIGERIASAT 1 1 27941U 03042C 10072.74652324 .00000112 00000-0 30493-4 0 3299 2 27941 97.9082 301.9183 0011792 13.1089 347.0425 14.63064607344954 UK-DMC 1 27942U 03042D 10072.71128375 .00000063 00000-0 21085-4 0 3215 2 27942 97.9067 301.6016 0011552 21.0476 339.1216 14.63060045344943 BILSAT 1 1 27943U 03042E 10072.71410181 .00000018 00000-0 12294-4 0 1811 2 27943 97.9052 301.2689 0011830 11.1258 349.0215 14.62939255344932 BEIJING 1 1 28890U 05043A 10072.75140868 .00000086 00000-0 27239-4 0 596 2 28890 98.0202 320.1105 0014756 217.5935 142.4249 14.60087940233246 HJ-1A 1 33320U 08041A 10072.74881040 .00000176 00000-0 33521-4 0 6771 2 33320 97.9521 149.2972 0023693 296.2793 63.5972 14.75234283 81630 HJ-1B 1 33321U 08041B 10072.84878731 .00000034 00000-0 12683-4 0 7169 2 33321 97.9537 149.4356 0042163 308.0387 51.7025 14.75243790 81631 YAOGAN 4 1 33446U 08061A 10072.70851391 -.00000164 00000-0 -16786-4 0 4326 2 33446 97.8773 152.2781 0012740 236.8515 123.1480 14.75505993 68947 YAOGAN 5 1 33456U 08064A 10072.76677491 .00001824 00000-0 75552-4 0 4208 2 33456 97.3442 148.3763 0005934 130.0938 16.7419 15.25173976 69132 DEIMOS-1 1 35681U 09041A 10072.87224640 .00002358 00000-0 40737-3 0 7013 2 35681 98.1095 331.4786 0001360 109.7857 250.3486 14.69350830 33380 UK-DMC 2 1 35683U 09041C 10072.85807314 .00000057 00000-0 18929-4 0 7088 2 35683 98.1124 330.7273 0006514 352.9941 7.1173 14.66452565 33331